Location: Riddle Hill
(39.7867°N, 89.7645°W)
Time: 21:39:45
(UTC+00:00)

Cosmos 2227 Rocket - Pass Details

Date: 29 October 2020
Orbit: 839 x 845 km, 71.0° (Epoch: 01 December)

Event Time Altitude Azimuth Distance (km) Brightness Sun altitude
Rises 23:40:13 0° 341° (NNW) 3,405 5.5 -8.3°
Reaches altitude 10° 23:42:45 10° 347° (NNW) 2,468 4.7 -8.8°
Maximum altitude 23:48:16 51° 63° (ENE) 1,049 2.4 -9.9°
Drops below altitude 10° 23:53:45 10° 139° (SE) 2,458 4.3 -10.9°
Sets 23:56:15 0° 144° (SE) 3,390 5.1 -11.4°
